Weather History for KCSM - October, 2012

Change the Weather History Date:

Sunday, October 7, 2012

  Actual Average Record
Temperature  
Mean Temperature 40 °F -  
Max Temperature 46 °F 73 °F 95 °F (2014)
Min Temperature 35 °F 52 °F 35 °F (2012)
Degree Days  
Heating Degree Days 24    
Moisture  
Dew Point 30 °F    
Average Humidity 66    
Maximum Humidity 85    
Minimum Humidity 46    
Precipitation  
Precipitation 0.00 in - - ()
Sea Level Pressure  
Sea Level Pressure 30.32 in    
Wind  
Wind Speed 10 mph (NE)    
Max Wind Speed 17 mph    
Max Gust Speed -    
Visibility 10 miles    
Events      
Averages and records for this station are not official NWS values.
T = Trace of Precipitation, MM = Missing Value Source: NWS Daily Summary

Daily Weather History Graph

Daily Weather History Graph

Search for Another Location

Airport or City:

Trip Planner

Search our weather history database for the weather conditions in past years. The results will help you decide how hot, cold, wet, or windy it might be!

Date:

Astronomy

Oct. 07, 2012 Rise Set
Actual Time 7:36 AM CDT 7:11 PM CDT
Civil Twilight 7:11 AM CDT 7:36 PM CDT
Nautical Twilight 6:41 AM CDT 8:06 PM CDT
Astronomical Twilight 6:12 AM CDT 8:35 PM CDT
Moon No Moon Rise 2:06 PM CDT (10/7)
Length of Visible Light 12h 25m
Length of Day
11h 34m
Waning Gibbous, 56% of the Moon is Illuminated
Oct 7
Waning Gibbous
Oct 8
Last Quarter
Oct 15
New
Oct 21
First Quarter
Oct 29
Full

Hourly Weather History & Observations

Time (CDT) Temp. Windchill Dew Point Humidity Pressure Visibility Wind Dir Wind Speed Gust Speed Precip Events Conditions
12:53 AM 37.0 °F 29.3 °F 30.9 °F 79% 30.39 in 10.0 mi North 11.5 mph - N/A   Clear
2:53 AM 39.0 °F 31.8 °F 33.1 °F 79% 30.37 in 10.0 mi NNE 11.5 mph - N/A   Clear
3:53 AM 39.0 °F 31.8 °F 32.0 °F 76% 30.37 in 10.0 mi North 11.5 mph - N/A   Scattered Clouds
4:53 AM 39.0 °F 30.3 °F 32.0 °F 76% 30.34 in 10.0 mi NNE 16.1 mph - N/A   Overcast
5:53 AM 37.9 °F 30.0 °F 30.9 °F 76% 30.35 in 10.0 mi NNE 12.7 mph - N/A   Mostly Cloudy
6:53 AM 35.1 °F 26.9 °F 30.9 °F 85% 30.35 in 10.0 mi North 11.5 mph - N/A   Clear
7:53 AM 35.1 °F 28.6 °F 30.9 °F 85% 30.38 in 10.0 mi North 8.1 mph - N/A   Clear
8:53 AM 39.9 °F 31.1 °F 32.0 °F 73% 30.36 in 10.0 mi NNE 17.3 mph - N/A   Clear
9:53 AM 43.0 °F 36.8 °F 30.0 °F 60% 30.38 in 10.0 mi NE 11.5 mph - N/A   Clear
10:53 AM 43.0 °F 36.4 °F 30.9 °F 62% 30.36 in 10.0 mi NNE 12.7 mph - N/A   Clear
12:53 PM 45.0 °F 41.2 °F 28.0 °F 52% 30.36 in 10.0 mi ENE 6.9 mph - N/A   Mostly Cloudy
1:53 PM 46.0 °F 44.8 °F 28.0 °F 50% 30.33 in 10.0 mi Variable 3.5 mph - N/A   Overcast
2:53 PM 46.0 °F 41.9 °F 28.0 °F 50% 30.29 in 10.0 mi NNE 8.1 mph - N/A   Overcast
3:53 PM 46.9 °F - 27.0 °F 46% 30.28 in 10.0 mi NE 5.8 mph - N/A   Overcast
4:53 PM 46.9 °F - 27.0 °F 46% 30.26 in 10.0 mi Variable 5.8 mph - N/A   Overcast
5:53 PM 46.9 °F - 27.0 °F 46% 30.25 in 10.0 mi ESE 9.2 mph - N/A   Overcast
6:53 PM 46.0 °F 43.1 °F 27.0 °F 47% 30.25 in 10.0 mi Variable 5.8 mph - N/A   Overcast
7:53 PM 41.0 °F 37.1 °F 30.0 °F 65% 30.26 in 10.0 mi ESE 5.8 mph - N/A   Partly Cloudy
8:53 PM 39.9 °F 34.5 °F 30.0 °F 68% 30.26 in 10.0 mi ESE 8.1 mph - N/A   Clear
9:53 PM 36.0 °F 31.1 °F 28.9 °F 76% 30.27 in 10.0 mi ESE 5.8 mph - N/A   Clear
10:53 PM 36.0 °F 31.1 °F 28.9 °F 76% 30.27 in 10.0 mi ESE 5.8 mph - N/A   Clear
11:53 PM 35.1 °F - 28.9 °F 78% 30.25 in 10.0 mi Calm Calm - N/A   Clear